DW3753 Weather Reports


time (UTC)temp
C
wind
direction
speed
KPH
gust
KPH
rain 1hr
cm
rain 24hr
cm
rain mn
cm
humidity
%
barometer
mb
20260506092340 13 346 3.2 12.9 0.00 0.00 0.00 77 1008.7
20260506090844 13 17 3.2 16.1 0.00 0.00 0.00 77 1008.7
20260506085846 13 338 6.4 17.7 0.00 0.00 0.00 77 1008.7
20260506084844 13 341 4.8 14.5 0.00 0.00 0.00 77 1008.7
20260506083844 13 80 4.8 14.5 0.00 0.00 0.00 78 1008.6
20260506082843 13 5 4.8 14.5 0.00 0.00 0.00 78 1008.3
20260506081845 13 339 4.8 14.5 0.00 0.00 0.00 78 1008.3
20260506081326 13 339 6.4 19.3 0.00 0.00 0.00 78 1008.5
20260506072838 13 329 3.2 12.9 0.00 0.00 0.00 80 1008.4
20260506071839 13 342 0.0 4.8 0.00 0.00 0.00 80 1007.9
20260506071322 13 5 0.0 4.8 0.00 0.00 0.00 80 1008.0
20260506061839 15 50 3.2 14.5 0.00 0.00 0.00 80 1008.1
20260506060832 15 0 3.2 9.7 0.00 0.00 0.00 80 1008.0
20260506051406 15 5 3.2 9.7 0.00 0.00 0.00 79 1008.2
20260506051230 15 20 4.8 12.9 0.00 0.00 0.00 78 1008.2
20260506044831 16 11 3.2 11.3 0.00 0.00 0.00 78 1008.1
20260506043835 16 344 3.2 12.9 0.00 0.00 0.00 78 1007.9
20260506042824 16 0 3.2 12.9 0.00 0.00 0.00 78 1007.9
20260506041823 16 5 4.8 16.1 0.00 0.00 0.00 78 1007.9
20260506040831 16 338 6.4 19.3 0.00 0.00 0.00 77 1007.9
20260506035823 16 38 6.4 22.5 0.00 0.00 0.00 77 1007.9
20260506034824 17 54 4.8 19.3 0.00 0.00 0.00 77 1007.9
20260506033826 17 346 8.0 25.7 0.00 0.00 0.00 76 1007.5
20260506032823 17 0 8.0 20.9 0.00 0.00 0.00 76 1007.3
20260506031826 17 327 8.0 19.3 0.00 0.00 0.00 75 1006.9
20260506030819 18 5 3.2 12.9 0.00 0.00 0.00 75 1006.7
20260506025818 18 355 4.8 14.5 0.00 0.00 0.00 74 1006.5
20260506025255 18 0 6.4 20.9 0.00 0.00 0.00 73 1006.4
20260506023818 18 9 1.6 9.7 0.00 0.00 0.00 74 1006.2
20260506022818 18 16 4.8 16.1 0.00 0.00 0.00 73 1006.1
20260506021819 19 343 4.8 14.5 0.00 0.00 0.00 72 1006.0
20260506020820 19 346 3.2 12.9 0.00 0.00 0.00 72 1005.6
20260506015818 19 355 6.4 16.1 0.00 0.00 0.00 72 1005.6
20260506014818 19 351 3.2 12.9 0.00 0.00 0.00 72 1005.6
20260506013815 20 15 1.6 8.0 0.00 0.00 0.00 71 1005.0
20260506013216 20 5 1.6 12.9 0.00 0.00 0.00 71 1004.6
20260506012851 20 5 3.2 16.1 0.00 0.00 0.00 71 1004.9
20260506011304 21 31 4.8 16.1 0.00 0.00 0.00 70 1004.2
20260506005818 21 16 3.2 16.1 0.00 0.00 0.00 69 1004.2
20260506004816 21 5 6.4 17.7 0.00 0.00 0.00 68 1003.8
20260506003816 21 5 4.8 19.3 0.00 0.00 0.00 68 1004.0
20260506002817 22 355 6.4 20.9 0.00 0.00 0.00 67 1003.6
20260506001810 22 5 17.7 30.6 0.00 0.00 0.00 65 1003.2
20260506000812 23 350 12.9 24.1 0.00 0.00 0.00 66 1003.2
20260506000257 23 344 16.1 27.4 0.00 0.00 0.00 64 1003.3
20260505234810 23 355 14.5 25.7 0.00 0.00 0.00 63 1003.2
20260505233809 23 355 14.5 22.5 0.00 0.00 0.00 62 1003.2
20260505232811 24 0 14.5 25.7 0.00 0.00 0.00 61 1003.2
20260505231810 24 0 16.1 24.1 0.00 0.00 0.00 61 1003.2
20260505230811 25 344 14.5 25.7 0.00 0.00 0.00 60 1003.2
20260505225810 25 291 17.7 29.0 0.00 0.00 0.00 58 1002.8
20260505225734 26 330 14.5 24.1 0.00 0.00 0.00 59 1003.1
20260505223806 26 315 19.3 27.4 0.00 0.00 0.00 58 1002.5
20260505222804 27 0 17.7 27.4 0.00 0.00 0.00 58 1002.4
20260505221804 27 298 16.1 29.0 0.00 0.00 0.00 57 1002.5
20260505220802 28 310 14.5 22.5 0.00 0.00 0.00 56 1002.2
20260505220716 28 286 12.9 24.1 0.00 0.00 0.00 51 1002.2
20260505215238 28 337 12.9 22.5 0.00 0.00 0.00 48 1002.1
20260505214237 28 340 12.9 20.9 0.00 0.00 0.00 48 1002.3
20260505212806 28 338 14.5 24.1 0.00 0.00 0.00 48 1002.3
20260505212242 29 348 16.1 27.4 0.00 0.00 0.00 48 1002.1
20260505211249 29 338 16.1 30.6 0.00 0.00 0.00 45 1002.2
20260505205759 31 274 9.7 17.7 0.00 0.00 0.00 51 1002.3
20260505204759 31 244 11.3 17.7 0.00 0.00 0.00 50 1002.3
20260505204725 31 207 9.7 17.7 0.00 0.00 0.00 51 1002.4
20260505202759 31 285 9.7 17.7 0.00 0.00 0.00 52 1002.4
20260505201758 31 250 9.7 22.5 0.00 0.00 0.00 52 1002.5
20260505200759 30 248 9.7 19.3 0.00 0.00 0.00 52 1002.8
20260505195759 30 246 12.9 20.9 0.00 0.00 0.00 52 1002.9
20260505194753 30 236 9.7 19.3 0.00 0.00 0.00 52 1003.0
20260505193754 30 266 11.3 17.7 0.00 0.00 0.00 52 1002.9
20260505192753 30 254 11.3 19.3 0.00 0.00 0.00 54 1003.0
20260505191752 30 213 12.9 22.5 0.00 0.00 0.00 54 1003.1
20260505190753 29 207 14.5 24.1 0.00 0.00 0.00 56 1002.9
20260505190239 29 240 14.5 22.5 0.00 0.00 0.00 57 1002.8
20260505185232 28 217 14.5 22.5 0.00 0.00 0.00 58 1002.8
20260505184234 28 194 14.5 22.5 0.00 0.00 0.00 62 1002.9
20260505182752 28 202 14.5 27.4 0.00 0.00 0.00 63 1003.0
20260505182707 28 203 17.7 29.0 0.00 0.00 0.00 65 1003.1
20260505180749 28 183 16.1 27.4 0.00 0.00 0.00 64 1003.1
20260505175745 28 213 14.5 24.1 0.00 0.00 0.00 65 1003.1
20260505174746 27 195 16.1 27.4 0.00 0.00 0.00 65 1003.2
20260505174228 27 200 17.7 32.2 0.00 0.00 0.00 64 1003.0
20260505172747 27 178 17.7 30.6 0.00 0.00 0.00 65 1003.0
20260505171747 27 200 17.7 32.2 0.00 0.00 0.00 65 1003.0
20260505170745 27 209 16.1 27.4 0.00 0.00 0.00 66 1003.2
20260505165747 27 238 19.3 30.6 0.00 0.00 0.00 66 1003.1
20260505164743 27 225 19.3 35.4 0.00 0.00 0.00 67 1003.2
20260505163743 26 192 19.3 33.8 0.00 0.00 0.00 68 1003.1
20260505162743 26 221 16.1 25.7 0.00 0.00 0.00 71 1003.0
20260505162233 25 196 17.7 27.4 0.00 0.00 0.00 72 1003.0
20260505160745 26 179 17.7 29.0 0.00 0.00 0.00 71 1002.9
20260505153222 24 193 19.3 32.2 0.00 0.00 0.00 77 1002.7
20260505152228 23 218 16.1 30.6 0.00 0.00 0.00 78 1002.7
20260505151709 23 185 20.9 33.8 0.00 0.00 0.00 77 1002.7
20260505140208 22 195 20.9 30.6 0.00 0.00 0.00 81 1002.8
20260505124726 21 199 16.1 29.0 0.00 0.00 0.00 85 1002.2
20260505123723 21 199 16.1 27.4 0.00 0.00 0.00 85 1002.0
20260505122721 21 223 16.1 29.0 0.00 0.00 0.00 85 1001.8
20260505121723 21 195 17.7 27.4 0.00 0.00 0.00 85 1001.7
20260505120721 21 174 16.1 27.4 0.00 0.00 0.00 85 1001.6
20260505115721 20 174 14.5 25.7 0.00 0.00 0.00 85 1001.6
20260505114722 20 164 16.1 33.8 0.00 0.00 0.00 85 1001.5
20260505113722 20 207 16.1 33.8 0.00 0.00 0.00 85 1001.5
20260505112721 20 164 12.9 25.7 0.00 0.00 0.00 86 1001.5
20260505111725 20 181 12.9 25.7 0.00 0.00 0.00 85 1001.4
20260505110721 20 186 12.9 27.4 0.00 0.00 0.00 85 1001.4
20260505110218 20 177 12.9 27.4 0.00 0.00 0.00 85 1001.4
20260505101723 20 178 9.7 20.9 0.00 0.00 0.00 85 1001.4
20260505100721 20 201 11.3 22.5 0.00 0.00 0.00 85 1001.4
20260505095720 20 184 9.7 24.1 0.00 0.00 0.00 84 1001.5
20260505094720 21 196 11.3 24.1 0.00 0.00 0.00 84 1001.6
20260505093720 21 190 11.3 22.5 0.00 0.00 0.00 84 1001.5
20260505092719 21 154 11.3 22.5 0.00 0.00 0.00 83 1001.5